Time,TemperatureF,DewpointF,PressureIn,WindDirection,WindDirectionDegrees,WindSpeedMPH,WindSpeedGustMPH,Humidity,HourlyPrecipIn,Conditions,Clouds,dailyrainin,SoftwareType,DateUTC
2013-03-15 00:00:00,55.2,46.3,30.22,North,350,0.0,0.0,72,0.00,,---,0.00,VWS V13.01,2013-03-15 04:00:00,
2013-03-15 00:02:00,55.3,46.4,30.22,NW,318,0.0,6.0,72,0.00,,---,0.00,VWS V13.01,2013-03-15 04:02:00,
2013-03-15 00:07:00,55.3,46.4,30.22,North,355,2.0,6.0,72,0.00,,---,0.00,VWS V13.01,2013-03-15 04:07:00,
2013-03-15 00:12:00,55.3,46.4,30.22,North,350,0.0,6.0,72,0.00,,---,0.00,VWS V13.01,2013-03-15 04:12:00,
2013-03-15 00:17:00,55.2,46.7,30.22,North,5,0.0,6.0,73,0.00,,---,0.00,VWS V13.01,2013-03-15 04:17:00,
2013-03-15 00:22:00,55.0,46.5,30.22,North,355,0.0,6.0,73,0.00,,---,0.00,VWS V13.01,2013-03-15 04:22:00,
2013-03-15 00:27:00,54.8,46.3,30.22,North,355,0.0,6.0,73,0.00,,---,0.00,VWS V13.01,2013-03-15 04:27:00,
2013-03-15 00:32:00,54.6,46.5,30.22,North,355,0.0,0.0,74,0.00,,---,0.00,VWS V13.01,2013-03-15 04:32:00,
2013-03-15 00:37:00,54.4,46.7,30.22,North,355,0.0,0.0,75,0.00,,---,0.00,VWS V13.01,2013-03-15 04:37:00,
2013-03-15 00:42:00,54.1,46.4,30.22,North,355,0.0,0.0,75,0.00,,---,0.00,VWS V13.01,2013-03-15 04:42:00,
2013-03-15 00:47:00,53.9,46.2,30.22,North,355,0.0,0.0,75,0.00,,---,0.00,VWS V13.01,2013-03-15 04:47:00,
2013-03-15 00:52:00,53.6,46.2,30.22,North,355,0.0,0.0,76,0.00,,---,0.00,VWS V13.01,2013-03-15 04:52:00,
2013-03-15 00:57:00,53.3,46.3,30.22,North,355,0.0,0.0,77,0.00,,---,0.00,VWS V13.01,2013-03-15 04:57:00,
2013-03-15 01:03:00,53.2,46.2,30.22,North,355,0.0,0.0,77,0.00,,---,0.00,VWS V13.01,2013-03-15 05:03:00,
2013-03-15 01:08:00,53.2,46.2,30.22,North,360,0.0,0.0,77,0.00,,---,0.00,VWS V13.01,2013-03-15 05:08:00,
2013-03-15 01:13:00,53.2,45.8,30.22,North,5,0.0,0.0,76,0.00,,---,0.00,VWS V13.01,2013-03-15 05:13:00,
2013-03-15 01:18:00,53.2,45.5,30.21,NNE,22,0.0,0.0,75,0.00,,---,0.00,VWS V13.01,2013-03-15 05:18:00,
2013-03-15 01:23:00,53.2,45.5,30.22,NNE,22,0.0,0.0,75,0.00,,---,0.00,VWS V13.01,2013-03-15 05:23:00,
2013-03-15 01:28:00,53.2,45.5,30.21,NNE,22,0.0,0.0,75,0.00,,---,0.00,VWS V13.01,2013-03-15 05:28:00,
2013-03-15 01:33:00,53.1,45.8,30.21,NNE,19,0.0,0.0,76,0.00,,---,0.00,VWS V13.01,2013-03-15 05:33:00,
2013-03-15 01:38:00,53.0,45.7,30.21,NNE,19,0.0,0.0,76,0.00,,---,0.00,VWS V13.01,2013-03-15 05:38:00,
2013-03-15 01:43:00,52.9,45.5,30.21,NNE,17,0.0,0.0,76,0.00,,---,0.00,VWS V13.01,2013-03-15 05:43:00,
2013-03-15 01:48:00,52.8,45.5,30.21,North,10,0.0,0.0,76,0.00,,---,0.00,VWS V13.01,2013-03-15 05:48:00,
2013-03-15 01:53:00,52.9,45.9,30.21,North,9,0.0,5.0,77,0.00,,---,0.00,VWS V13.01,2013-03-15 05:53:00,
2013-03-15 01:58:00,52.9,45.5,30.21,North,5,0.0,5.0,76,0.00,,---,0.00,VWS V13.01,2013-03-15 05:58:00,
2013-03-15 02:03:00,53.0,45.7,30.21,North,350,2.0,6.0,76,0.00,,---,0.00,VWS V13.01,2013-03-15 06:03:00,
2013-03-15 02:09:00,53.1,45.4,30.21,North,5,2.0,6.0,75,0.00,,---,0.00,VWS V13.01,2013-03-15 06:09:00,
2013-03-15 02:14:00,53.0,45.3,30.21,NNE,13,0.0,6.0,75,0.00,,---,0.00,VWS V13.01,2013-03-15 06:14:00,
2013-03-15 02:19:00,53.0,45.0,30.21,North,5,3.0,6.0,74,0.00,,---,0.00,VWS V13.01,2013-03-15 06:19:00,
2013-03-15 02:24:00,53.0,45.0,30.21,North,355,0.0,6.0,74,0.00,,---,0.00,VWS V13.01,2013-03-15 06:24:00,
2013-03-15 02:29:00,52.8,44.8,30.21,North,11,0.0,6.0,74,0.00,,---,0.00,VWS V13.01,2013-03-15 06:29:00,
2013-03-15 02:34:00,52.7,44.7,30.21,NNE,27,0.0,0.0,74,0.00,,---,0.00,VWS V13.01,2013-03-15 06:34:00,
2013-03-15 02:39:00,52.6,44.6,30.21,NE,36,0.0,0.0,74,0.00,,---,0.00,VWS V13.01,2013-03-15 06:39:00,
2013-03-15 02:44:00,52.4,44.7,30.21,NE,36,0.0,0.0,75,0.00,,---,0.00,VWS V13.01,2013-03-15 06:44:00,
2013-03-15 02:49:00,52.2,44.5,30.21,NE,38,0.0,0.0,75,0.00,,---,0.00,VWS V13.01,2013-03-15 06:49:00,
2013-03-15 02:54:00,52.1,44.8,30.21,NE,38,0.0,0.0,76,0.00,,---,0.00,VWS V13.01,2013-03-15 06:54:00,
2013-03-15 02:59:00,51.9,44.6,30.21,NE,37,0.0,0.0,76,0.00,,---,0.00,VWS V13.01,2013-03-15 06:59:00,
2013-03-15 03:04:00,51.6,44.6,30.21,NE,46,0.0,3.0,77,0.00,,---,0.00,VWS V13.01,2013-03-15 07:04:00,
2013-03-15 03:09:00,51.5,44.5,30.21,North,5,0.0,3.0,77,0.00,,---,0.00,VWS V13.01,2013-03-15 07:09:00,
2013-03-15 03:14:00,51.3,43.7,30.20,North,360,0.0,6.0,75,0.00,,---,0.00,VWS V13.01,2013-03-15 07:14:00,
2013-03-15 03:20:00,51.2,43.6,30.21,NE,53,0.0,6.0,75,0.00,,---,0.00,VWS V13.01,2013-03-15 07:20:00,
2013-03-15 03:25:00,51.0,43.0,30.21,ENE,58,0.0,6.0,74,0.00,,---,0.00,VWS V13.01,2013-03-15 07:25:00,
2013-03-15 03:30:00,50.8,42.5,30.21,NNE,30,0.0,0.0,73,0.00,,---,0.00,VWS V13.01,2013-03-15 07:30:00,
2013-03-15 03:35:00,50.6,42.3,30.20,NNE,15,0.0,0.0,73,0.00,,---,0.00,VWS V13.01,2013-03-15 07:35:00,
2013-03-15 03:40:00,50.4,41.7,30.20,NNE,13,0.0,0.0,72,0.00,,---,0.00,VWS V13.01,2013-03-15 07:40:00,
2013-03-15 03:45:00,50.2,41.5,30.20,North,5,0.0,0.0,72,0.00,,---,0.00,VWS V13.01,2013-03-15 07:45:00,
2013-03-15 03:50:00,49.9,41.2,30.20,NNW,344,0.0,0.0,72,0.00,,---,0.00,VWS V13.01,2013-03-15 07:50:00,
2013-03-15 03:55:00,49.6,41.0,30.20,North,355,0.0,0.0,72,0.00,,---,0.00,VWS V13.01,2013-03-15 07:55:00,
2013-03-15 04:00:00,49.4,41.1,30.20,North,360,0.0,0.0,73,0.00,,---,0.00,VWS V13.01,2013-03-15 08:00:00,
2013-03-15 04:05:00,49.2,40.9,30.20,North,355,0.0,4.0,73,0.00,,---,0.00,VWS V13.01,2013-03-15 08:05:00,
2013-03-15 04:10:00,49.0,41.1,30.20,NE,44,0.0,4.0,74,0.00,,---,0.00,VWS V13.01,2013-03-15 08:10:00,
2013-03-15 04:15:00,48.8,40.9,30.20,NE,40,0.0,4.0,74,0.00,,---,0.00,VWS V13.01,2013-03-15 08:15:00,
2013-03-15 04:20:00,48.7,41.1,30.20,NE,36,0.0,4.0,75,0.00,,---,0.00,VWS V13.01,2013-03-15 08:20:00,
2013-03-15 04:25:00,48.5,41.3,30.20,NE,40,0.0,4.0,76,0.00,,---,0.00,VWS V13.01,2013-03-15 08:25:00,
2013-03-15 04:30:00,48.3,41.1,30.20,NE,40,0.0,0.0,76,0.00,,---,0.00,VWS V13.01,2013-03-15 08:30:00,
2013-03-15 04:35:00,48.2,41.0,30.20,NE,40,0.0,0.0,76,0.00,,---,0.00,VWS V13.01,2013-03-15 08:35:00,
2013-03-15 04:41:00,48.0,41.2,30.20,NE,40,0.0,0.0,77,0.00,,---,0.00,VWS V13.01,2013-03-15 08:41:00,
2013-03-15 04:46:00,47.7,40.8,30.20,NE,40,0.0,0.0,77,0.00,,---,0.00,VWS V13.01,2013-03-15 08:46:00,
2013-03-15 04:51:00,47.5,41.0,30.20,NE,40,0.0,0.0,78,0.00,,---,0.00,VWS V13.01,2013-03-15 08:51:00,
2013-03-15 04:56:00,47.3,40.8,30.20,NE,40,0.0,0.0,78,0.00,,---,0.00,VWS V13.01,2013-03-15 08:56:00,
2013-03-15 05:02:00,47.1,40.3,30.20,NE,40,0.0,0.0,77,0.00,,---,0.00,VWS V13.01,2013-03-15 09:02:00,
2013-03-15 05:07:00,46.8,40.3,30.20,NE,40,0.0,0.0,78,0.00,,---,0.00,VWS V13.01,2013-03-15 09:07:00,
2013-03-15 05:12:00,46.6,40.1,30.20,NE,40,0.0,0.0,78,0.00,,---,0.00,VWS V13.01,2013-03-15 09:12:00,
2013-03-15 05:17:00,46.4,40.2,30.20,NE,40,0.0,0.0,79,0.00,,---,0.00,VWS V13.01,2013-03-15 09:17:00,
2013-03-15 05:22:00,46.1,40.3,30.21,NE,40,0.0,0.0,80,0.00,,---,0.00,VWS V13.01,2013-03-15 09:22:00,
2013-03-15 05:27:00,46.0,40.2,30.21,NE,40,0.0,0.0,80,0.00,,---,0.00,VWS V13.01,2013-03-15 09:27:00,
2013-03-15 05:32:00,45.7,40.2,30.21,NE,40,0.0,0.0,81,0.00,,---,0.00,VWS V13.01,2013-03-15 09:32:00,
2013-03-15 05:37:00,45.6,40.1,30.21,NE,40,0.0,0.0,81,0.00,,---,0.00,VWS V13.01,2013-03-15 09:37:00,
2013-03-15 05:42:00,45.5,40.3,30.21,NE,40,0.0,0.0,82,0.00,,---,0.00,VWS V13.01,2013-03-15 09:42:00,
2013-03-15 05:47:00,45.4,40.5,30.22,NE,40,0.0,0.0,83,0.00,,---,0.00,VWS V13.01,2013-03-15 09:47:00,
2013-03-15 05:52:00,45.2,40.3,30.22,NE,40,0.0,0.0,83,0.00,,---,0.00,VWS V13.01,2013-03-15 09:52:00,
2013-03-15 05:57:00,45.1,40.2,30.22,NE,40,0.0,0.0,83,0.00,,---,0.00,VWS V13.01,2013-03-15 09:57:00,
2013-03-15 06:02:00,45.1,40.6,30.22,NE,40,0.0,0.0,84,0.00,,---,0.00,VWS V13.01,2013-03-15 10:02:00,
2013-03-15 06:07:00,45.0,40.5,30.22,NE,40,0.0,0.0,84,0.00,,---,0.00,VWS V13.01,2013-03-15 10:07:00,
2013-03-15 06:12:00,44.9,40.4,30.23,NE,40,0.0,0.0,84,0.00,,---,0.00,VWS V13.01,2013-03-15 10:12:00,
2013-03-15 06:17:00,44.7,40.2,30.22,NE,40,0.0,0.0,84,0.00,,---,0.00,VWS V13.01,2013-03-15 10:17:00,
2013-03-15 06:23:00,44.6,40.1,30.23,NE,40,0.0,0.0,84,0.00,,---,0.00,VWS V13.01,2013-03-15 10:23:00,
2013-03-15 06:28:00,44.4,39.9,30.23,NE,40,0.0,0.0,84,0.00,,---,0.00,VWS V13.01,2013-03-15 10:28:00,
2013-03-15 06:33:00,44.4,40.2,30.23,NE,40,0.0,0.0,85,0.00,,---,0.00,VWS V13.01,2013-03-15 10:33:00,
2013-03-15 06:38:00,44.4,40.2,30.23,NE,40,0.0,0.0,85,0.00,,---,0.00,VWS V13.01,2013-03-15 10:38:00,
2013-03-15 06:43:00,44.2,40.0,30.23,NE,40,0.0,0.0,85,0.00,,---,0.00,VWS V13.01,2013-03-15 10:43:00,
2013-03-15 06:48:00,44.2,40.0,30.23,NE,40,0.0,0.0,85,0.00,,---,0.00,VWS V13.01,2013-03-15 10:48:00,
2013-03-15 06:53:00,44.1,40.2,30.23,NE,40,0.0,0.0,86,0.00,,---,0.00,VWS V13.01,2013-03-15 10:53:00,
2013-03-15 06:58:00,44.0,40.1,30.23,NE,40,0.0,0.0,86,0.00,,---,0.00,VWS V13.01,2013-03-15 10:58:00,
2013-03-15 07:03:00,44.0,40.1,30.23,NE,40,0.0,0.0,86,0.00,,---,0.00,VWS V13.01,2013-03-15 11:03:00,
2013-03-15 07:08:00,43.9,40.0,30.23,NE,40,0.0,0.0,86,0.00,,---,0.00,VWS V13.01,2013-03-15 11:08:00,
2013-03-15 07:13:00,43.8,39.9,30.23,NE,40,0.0,0.0,86,0.00,,---,0.00,VWS V13.01,2013-03-15 11:13:00,
2013-03-15 07:18:00,43.8,39.9,30.22,NE,40,0.0,0.0,86,0.00,,---,0.00,VWS V13.01,2013-03-15 11:18:00,
2013-03-15 07:23:00,43.8,39.9,30.23,NE,40,0.0,0.0,86,0.00,,---,0.00,VWS V13.01,2013-03-15 11:23:00,
2013-03-15 07:28:00,43.8,40.2,30.23,NE,40,0.0,0.0,87,0.00,,---,0.00,VWS V13.01,2013-03-15 11:28:00,
2013-03-15 07:33:00,43.7,39.8,30.23,NE,40,0.0,0.0,86,0.00,,---,0.00,VWS V13.01,2013-03-15 11:33:00,
2013-03-15 07:39:00,43.7,40.1,30.23,NE,40,0.0,0.0,87,0.00,,---,0.00,VWS V13.01,2013-03-15 11:39:00,
2013-03-15 07:44:00,43.8,40.2,30.23,NE,40,0.0,0.0,87,0.00,,---,0.00,VWS V13.01,2013-03-15 11:44:00,
2013-03-15 07:49:00,43.7,40.1,30.22,NE,40,0.0,0.0,87,0.00,,---,0.00,VWS V13.01,2013-03-15 11:49:00,
2013-03-15 07:54:00,43.6,40.0,30.23,NE,40,0.0,0.0,87,0.00,,---,0.00,VWS V13.01,2013-03-15 11:54:00,
2013-03-15 07:59:00,43.9,40.3,30.23,NE,40,0.0,0.0,87,0.00,,---,0.00,VWS V13.01,2013-03-15 11:59:00,
2013-03-15 08:04:00,44.1,40.5,30.23,NE,40,0.0,0.0,87,0.00,,---,0.00,VWS V13.01,2013-03-15 12:04:00,
2013-03-15 08:09:00,44.3,40.7,30.24,NE,40,0.0,0.0,87,0.00,,---,0.00,VWS V13.01,2013-03-15 12:09:00,
2013-03-15 08:14:00,44.7,41.1,30.24,NE,40,0.0,0.0,87,0.00,,---,0.00,VWS V13.01,2013-03-15 12:14:00,
2013-03-15 08:19:00,45.0,41.4,30.24,NE,40,0.0,0.0,87,0.00,,---,0.00,VWS V13.01,2013-03-15 12:19:00,
2013-03-15 08:24:00,45.3,42.0,30.25,NE,40,0.0,0.0,88,0.00,,---,0.00,VWS V13.01,2013-03-15 12:24:00,
2013-03-15 08:29:00,45.7,42.1,30.25,NE,40,0.0,0.0,87,0.00,,---,0.00,VWS V13.01,2013-03-15 12:29:00,
2013-03-15 08:34:00,46.0,42.7,30.25,NE,40,0.0,0.0,88,0.00,,---,0.00,VWS V13.01,2013-03-15 12:34:00,
2013-03-15 08:40:00,46.4,42.8,30.25,NE,40,0.0,0.0,87,0.00,,---,0.00,VWS V13.01,2013-03-15 12:40:00,
2013-03-15 08:45:00,46.8,43.4,30.25,NE,40,0.0,0.0,88,0.00,,---,0.00,VWS V13.01,2013-03-15 12:45:00,
2013-03-15 08:50:00,47.2,43.5,30.26,NE,41,0.0,0.0,87,0.00,,---,0.00,VWS V13.01,2013-03-15 12:50:00,
2013-03-15 08:55:00,47.8,44.1,30.25,NE,41,0.0,0.0,87,0.00,,---,0.00,VWS V13.01,2013-03-15 12:55:00,
2013-03-15 09:00:00,48.4,44.7,30.25,NE,44,0.0,0.0,87,0.00,,---,0.00,VWS V13.01,2013-03-15 13:00:00,
2013-03-15 09:05:00,48.9,45.2,30.25,NE,51,0.0,1.0,87,0.00,,---,0.00,VWS V13.01,2013-03-15 13:05:00,
2013-03-15 09:10:00,49.6,45.6,30.25,ENE,58,0.0,1.0,86,0.00,,---,0.00,VWS V13.01,2013-03-15 13:10:00,
2013-03-15 09:15:00,50.3,46.3,30.26,ENE,58,0.0,1.0,86,0.00,,---,0.00,VWS V13.01,2013-03-15 13:15:00,
2013-03-15 09:20:00,51.1,46.8,30.26,ENE,60,0.0,1.0,85,0.00,,---,0.00,VWS V13.01,2013-03-15 13:20:00,
2013-03-15 09:25:00,52.3,47.0,30.25,ENE,71,0.0,1.0,82,0.00,,---,0.00,VWS V13.01,2013-03-15 13:25:00,
2013-03-15 09:30:00,53.5,46.5,30.26,ENE,76,0.0,0.0,77,0.00,,---,0.00,VWS V13.01,2013-03-15 13:30:00,
2013-03-15 09:35:00,54.7,46.2,30.26,East,86,0.0,0.0,73,0.00,,---,0.00,VWS V13.01,2013-03-15 13:35:00,
2013-03-15 09:40:00,55.7,46.5,30.26,ENE,68,0.0,0.0,71,0.00,,---,0.00,VWS V13.01,2013-03-15 13:40:00,
2013-03-15 09:45:00,56.8,46.8,30.26,ESE,116,0.0,0.0,69,0.00,,---,0.00,VWS V13.01,2013-03-15 13:45:00,
2013-03-15 09:50:00,57.5,46.2,30.26,ESE,115,0.0,0.0,66,0.00,,---,0.00,VWS V13.01,2013-03-15 13:50:00,
2013-03-15 09:56:00,58.4,45.9,30.26,East,100,0.0,0.0,63,0.00,,---,0.00,VWS V13.01,2013-03-15 13:56:00,
2013-03-15 10:01:00,58.9,42.3,30.26,East,81,0.0,0.0,54,0.00,,---,0.00,VWS V13.01,2013-03-15 14:01:00,
2013-03-15 10:06:00,59.4,42.8,30.26,ENE,70,0.0,0.0,54,0.00,,---,0.00,VWS V13.01,2013-03-15 14:06:00,
2013-03-15 10:11:00,60.1,43.4,30.26,East,101,0.0,0.0,54,0.00,,---,0.00,VWS V13.01,2013-03-15 14:11:00,
2013-03-15 10:17:00,60.8,41.0,30.26,East,94,0.0,0.0,48,0.00,,---,0.00,VWS V13.01,2013-03-15 14:17:00,
2013-03-15 10:22:00,61.2,38.5,30.26,East,80,0.0,0.0,43,0.00,,---,0.00,VWS V13.01,2013-03-15 14:22:00,
2013-03-15 10:27:00,61.7,39.6,30.26,East,80,0.0,0.0,44,0.00,,---,0.00,VWS V13.01,2013-03-15 14:27:00,
2013-03-15 10:32:00,62.3,37.0,30.26,East,90,0.0,0.0,39,0.00,,---,0.00,VWS V13.01,2013-03-15 14:32:00,
2013-03-15 10:37:00,62.4,37.1,30.27,ESE,107,0.0,0.0,39,0.00,,---,0.00,VWS V13.01,2013-03-15 14:37:00,
2013-03-15 10:42:00,62.6,36.0,30.26,NNE,19,0.0,7.0,37,0.00,,---,0.00,VWS V13.01,2013-03-15 14:42:00,
2013-03-15 10:47:00,62.9,36.2,30.26,ENE,69,0.0,7.0,37,0.00,,---,0.00,VWS V13.01,2013-03-15 14:47:00,
2013-03-15 10:53:00,63.5,36.1,30.26,ENE,72,0.0,7.0,36,0.00,,---,0.00,VWS V13.01,2013-03-15 14:53:00,
2013-03-15 10:58:00,63.8,34.9,30.26,NE,43,0.0,7.0,34,0.00,,---,0.00,VWS V13.01,2013-03-15 14:58:00,
2013-03-15 11:03:00,63.7,34.1,30.26,ENE,65,0.0,1.0,33,0.00,,---,0.00,VWS V13.01,2013-03-15 15:03:00,
2013-03-15 11:08:00,63.6,33.2,30.26,ENE,68,0.0,2.0,32,0.00,,---,0.00,VWS V13.01,2013-03-15 15:08:00,
2013-03-15 11:13:00,63.8,33.4,30.26,East,79,0.0,2.0,32,0.00,,---,0.00,VWS V13.01,2013-03-15 15:13:00,
2013-03-15 11:18:00,64.1,34.4,30.26,ESE,109,0.0,2.0,33,0.00,,---,0.00,VWS V13.01,2013-03-15 15:18:00,
2013-03-15 11:24:00,64.5,34.8,30.26,East,79,0.0,2.0,33,0.00,,---,0.00,VWS V13.01,2013-03-15 15:24:00,
2013-03-15 11:31:00,64.7,35.0,30.26,North,10,0.0,0.0,33,0.00,,---,0.00,VWS V13.01,2013-03-15 15:31:00,
2013-03-15 11:36:00,64.8,34.3,30.26,North,5,0.0,1.0,32,0.00,,---,0.00,VWS V13.01,2013-03-15 15:36:00,
2013-03-15 11:41:00,64.9,35.1,30.26,ENE,61,0.0,2.0,33,0.00,,---,0.00,VWS V13.01,2013-03-15 15:41:00,
2013-03-15 11:47:00,65.2,35.4,30.26,NE,37,0.0,2.0,33,0.00,,---,0.00,VWS V13.01,2013-03-15 15:47:00,
2013-03-15 11:52:00,65.6,35.8,30.26,East,90,0.0,2.0,33,0.00,,---,0.00,VWS V13.01,2013-03-15 15:52:00,
2013-03-15 11:57:00,65.7,35.1,30.26,North,5,0.0,2.0,32,0.00,,---,0.00,VWS V13.01,2013-03-15 15:57:00,
2013-03-15 12:02:00,65.9,36.0,30.26,ESE,121,0.0,0.0,33,0.00,,---,0.00,VWS V13.01,2013-03-15 16:02:00,
2013-03-15 12:07:00,66.3,35.6,30.26,SE,134,0.0,1.0,32,0.00,,---,0.00,VWS V13.01,2013-03-15 16:07:00,
2013-03-15 12:12:00,66.5,36.5,30.26,NE,55,0.0,1.0,33,0.00,,---,0.00,VWS V13.01,2013-03-15 16:12:00,
2013-03-15 12:17:00,66.5,37.3,30.26,NNW,340,0.0,1.0,34,0.00,,---,0.00,VWS V13.01,2013-03-15 16:17:00,
2013-03-15 12:23:00,67.0,37.0,30.26,ESE,111,0.0,1.0,33,0.00,,---,0.00,VWS V13.01,2013-03-15 16:23:00,
2013-03-15 12:28:00,67.3,36.5,30.26,SE,126,0.0,1.0,32,0.00,,---,0.00,VWS V13.01,2013-03-15 16:28:00,
2013-03-15 12:33:00,67.6,37.5,30.25,ENE,57,0.0,0.0,33,0.00,,---,0.00,VWS V13.01,2013-03-15 16:33:00,
2013-03-15 12:38:00,68.1,37.9,30.25,ENE,69,0.0,1.0,33,0.00,,---,0.00,VWS V13.01,2013-03-15 16:38:00,
2013-03-15 12:43:00,68.9,37.0,30.25,ESE,109,0.0,1.0,31,0.00,,---,0.00,VWS V13.01,2013-03-15 16:43:00,
2013-03-15 12:48:00,69.2,34.7,30.25,NNW,336,0.0,1.0,28,0.00,,---,0.00,VWS V13.01,2013-03-15 16:48:00,
2013-03-15 12:53:00,68.3,34.8,30.24,South,173,0.0,1.0,29,0.00,,---,0.00,VWS V13.01,2013-03-15 16:53:00,
2013-03-15 12:58:00,68.9,36.2,30.24,SE,128,0.0,1.0,30,0.00,,---,0.00,VWS V13.01,2013-03-15 16:58:00,
2013-03-15 13:03:00,69.4,34.9,30.24,SE,126,0.0,1.0,28,0.00,,---,0.00,VWS V13.01,2013-03-15 17:03:00,
2013-03-15 13:08:00,69.7,36.0,30.24,East,96,0.0,1.0,29,0.00,,---,0.00,VWS V13.01,2013-03-15 17:08:00,
2013-03-15 13:14:00,70.3,37.4,30.23,ESE,109,0.0,1.0,30,0.00,,---,0.00,VWS V13.01,2013-03-15 17:14:00,
2013-03-15 13:19:00,70.7,40.2,30.23,North,5,0.0,1.0,33,0.00,,---,0.00,VWS V13.01,2013-03-15 17:19:00,
2013-03-15 13:24:00,70.4,41.5,30.23,ESE,123,1.0,1.0,35,0.00,,---,0.00,VWS V13.01,2013-03-15 17:24:00,
2013-03-15 13:29:00,68.8,40.1,30.23,WSW,258,0.0,4.0,35,0.00,,---,0.00,VWS V13.01,2013-03-15 17:29:00,
2013-03-15 13:34:00,67.6,40.4,30.23,West,263,0.0,1.0,37,0.00,,---,0.00,VWS V13.01,2013-03-15 17:34:00,
2013-03-15 13:39:00,67.2,42.1,30.22,WNW,297,1.0,1.0,40,0.00,,---,0.00,VWS V13.01,2013-03-15 17:39:00,
2013-03-15 13:44:00,67.0,42.5,30.22,West,278,0.0,1.0,41,0.00,,---,0.00,VWS V13.01,2013-03-15 17:44:00,
2013-03-15 13:50:00,67.0,43.2,30.22,SW,230,0.0,1.0,42,0.00,,---,0.00,VWS V13.01,2013-03-15 17:50:00,
2013-03-15 13:55:00,66.8,42.4,30.22,WNW,285,0.0,1.0,41,0.00,,---,0.00,VWS V13.01,2013-03-15 17:55:00,
2013-03-15 14:00:00,65.7,42.0,30.22,WNW,291,0.0,0.0,42,0.00,,---,0.00,VWS V13.01,2013-03-15 18:00:00,
2013-03-15 14:05:00,65.3,41.0,30.22,West,266,0.0,1.0,41,0.00,,---,0.00,VWS V13.01,2013-03-15 18:05:00,
2013-03-15 14:10:00,65.4,40.5,30.21,NNW,339,0.0,1.0,40,0.00,,---,0.00,VWS V13.01,2013-03-15 18:10:00,
2013-03-15 14:15:00,65.7,38.7,30.21,WNW,290,0.0,1.0,37,0.00,,---,0.00,VWS V13.01,2013-03-15 18:15:00,
2013-03-15 14:20:00,65.9,38.9,30.21,West,278,0.0,1.0,37,0.00,,---,0.00,VWS V13.01,2013-03-15 18:20:00,
2013-03-15 14:25:00,66.0,39.7,30.20,WNW,291,0.0,1.0,38,0.00,,---,0.00,VWS V13.01,2013-03-15 18:25:00,
2013-03-15 14:30:00,65.4,39.2,30.20,West,261,0.0,1.0,38,0.00,,---,0.00,VWS V13.01,2013-03-15 18:30:00,
2013-03-15 14:35:00,65.2,39.6,30.20,North,355,0.0,1.0,39,0.00,,---,0.00,VWS V13.01,2013-03-15 18:35:00,
2013-03-15 14:40:00,65.3,39.1,30.20,West,270,0.0,1.0,38,0.00,,---,0.00,VWS V13.01,2013-03-15 18:40:00,
2013-03-15 14:45:00,65.4,39.2,30.20,West,262,1.0,1.0,38,0.00,,---,0.00,VWS V13.01,2013-03-15 18:45:00,
2013-03-15 14:50:00,65.8,37.4,30.19,West,277,1.0,1.0,35,0.00,,---,0.00,VWS V13.01,2013-03-15 18:50:00,
2013-03-15 14:55:00,65.4,39.2,30.19,WNW,300,0.0,1.0,38,0.00,,---,0.00,VWS V13.01,2013-03-15 18:55:00,
2013-03-15 15:01:00,65.6,38.7,30.19,South,175,0.0,1.0,37,0.00,,---,0.00,VWS V13.01,2013-03-15 19:01:00,
2013-03-15 15:06:00,65.7,38.7,30.19,WNW,292,0.0,1.0,37,0.00,,---,0.00,VWS V13.01,2013-03-15 19:06:00,
2013-03-15 15:11:00,65.8,38.1,30.19,West,271,0.0,1.0,36,0.00,,---,0.00,VWS V13.01,2013-03-15 19:11:00,
2013-03-15 15:16:00,65.6,40.0,30.19,WNW,300,0.0,1.0,39,0.00,,---,0.00,VWS V13.01,2013-03-15 19:16:00,
2013-03-15 15:21:00,65.8,40.2,30.19,WSW,250,0.0,1.0,39,0.00,,---,0.00,VWS V13.01,2013-03-15 19:21:00,
2013-03-15 15:26:00,65.5,39.2,30.18,NNW,337,0.0,1.0,38,0.00,,---,0.00,VWS V13.01,2013-03-15 19:26:00,
2013-03-15 15:31:00,65.3,39.1,30.18,WNW,286,0.0,1.0,38,0.00,,---,0.00,VWS V13.01,2013-03-15 19:31:00,
2013-03-15 15:36:00,64.8,39.3,30.18,West,278,0.0,1.0,39,0.00,,---,0.00,VWS V13.01,2013-03-15 19:36:00,
2013-03-15 15:42:00,64.5,40.3,30.18,West,274,0.0,2.0,41,0.00,,---,0.00,VWS V13.01,2013-03-15 19:42:00,
2013-03-15 15:47:00,65.1,41.5,30.18,West,275,0.0,2.0,42,0.00,,---,0.00,VWS V13.01,2013-03-15 19:47:00,
2013-03-15 15:52:00,65.0,39.5,30.18,NNW,348,0.0,2.0,39,0.00,,---,0.00,VWS V13.01,2013-03-15 19:52:00,
2013-03-15 15:57:00,65.2,40.9,30.18,SW,227,0.0,2.0,41,0.00,,---,0.00,VWS V13.01,2013-03-15 19:57:00,
2013-03-15 16:02:00,65.0,38.8,30.18,West,281,0.0,1.0,38,0.00,,---,0.00,VWS V13.01,2013-03-15 20:02:00,
2013-03-15 16:07:00,64.8,40.6,30.17,West,277,0.0,3.0,41,0.00,,---,0.00,VWS V13.01,2013-03-15 20:07:00,
2013-03-15 16:12:00,64.6,39.8,30.17,WNW,303,0.0,3.0,40,0.00,,---,0.00,VWS V13.01,2013-03-15 20:12:00,
2013-03-15 16:18:00,64.6,39.8,30.17,NNW,329,0.0,3.0,40,0.00,,---,0.00,VWS V13.01,2013-03-15 20:18:00,
2013-03-15 16:23:00,64.8,39.3,30.17,WNW,293,0.0,3.0,39,0.00,,---,0.00,VWS V13.01,2013-03-15 20:23:00,
2013-03-15 16:28:00,65.2,40.3,30.17,West,261,0.0,3.0,40,0.00,,---,0.00,VWS V13.01,2013-03-15 20:28:00,
2013-03-15 16:33:00,65.4,39.8,30.16,NW,313,0.0,0.0,39,0.00,,---,0.00,VWS V13.01,2013-03-15 20:33:00,
2013-03-15 16:38:00,65.2,39.0,30.16,NNE,15,0.0,0.0,38,0.00,,---,0.00,VWS V13.01,2013-03-15 20:38:00,
2013-03-15 16:43:00,65.1,40.8,30.16,WNW,284,0.0,1.0,41,0.00,,---,0.00,VWS V13.01,2013-03-15 20:43:00,
2013-03-15 16:48:00,65.1,40.2,30.16,NNW,338,0.0,1.0,40,0.00,,---,0.00,VWS V13.01,2013-03-15 20:48:00,
2013-03-15 16:53:00,65.0,40.1,30.15,NW,321,0.0,1.0,40,0.00,,---,0.00,VWS V13.01,2013-03-15 20:53:00,
2013-03-15 16:58:00,65.0,40.8,30.15,NW,304,0.0,1.0,41,0.00,,---,0.00,VWS V13.01,2013-03-15 20:58:00,
2013-03-15 17:03:00,65.2,41.5,30.15,NW,326,0.0,4.0,42,0.00,,---,0.00,VWS V13.01,2013-03-15 21:03:00,
2013-03-15 17:08:00,64.9,40.7,30.15,NNE,16,0.0,4.0,41,0.00,,---,0.00,VWS V13.01,2013-03-15 21:08:00,
2013-03-15 17:13:00,64.7,41.7,30.15,West,261,0.0,4.0,43,0.00,,---,0.00,VWS V13.01,2013-03-15 21:13:00,
2013-03-15 17:18:00,64.6,42.2,30.15,WNW,289,1.0,4.0,44,0.00,,---,0.00,VWS V13.01,2013-03-15 21:18:00,
2013-03-15 17:23:00,64.3,41.3,30.15,West,274,0.0,4.0,43,0.00,,---,0.00,VWS V13.01,2013-03-15 21:23:00,
2013-03-15 17:28:00,64.1,41.2,30.15,West,277,0.0,4.0,43,0.00,,---,0.00,VWS V13.01,2013-03-15 21:28:00,
2013-03-15 17:33:00,64.1,41.8,30.16,West,269,0.0,1.0,44,0.00,,---,0.00,VWS V13.01,2013-03-15 21:33:00,
2013-03-15 17:38:00,64.2,43.0,30.16,WNW,295,0.0,1.0,46,0.00,,---,0.00,VWS V13.01,2013-03-15 21:38:00,
2013-03-15 17:44:00,64.3,43.7,30.15,WNW,291,0.0,1.0,47,0.00,,---,0.00,VWS V13.01,2013-03-15 21:44:00,
2013-03-15 17:49:00,64.3,43.7,30.15,NW,309,0.0,1.0,47,0.00,,---,0.00,VWS V13.01,2013-03-15 21:49:00,
2013-03-15 17:54:00,64.4,44.3,30.15,WNW,293,0.0,1.0,48,0.00,,---,0.00,VWS V13.01,2013-03-15 21:54:00,
2013-03-15 17:59:00,64.1,44.0,30.15,WNW,299,0.0,2.0,48,0.00,,---,0.00,VWS V13.01,2013-03-15 21:59:00,
2013-03-15 18:04:00,63.9,44.4,30.15,NW,323,0.0,2.0,49,0.00,,---,0.00,VWS V13.01,2013-03-15 22:04:00,
2013-03-15 18:09:00,63.5,44.0,30.15,WNW,285,1.0,2.0,49,0.00,,---,0.00,VWS V13.01,2013-03-15 22:09:00,
2013-03-15 18:14:00,63.4,42.8,30.15,WNW,302,1.0,2.0,47,0.00,,---,0.00,VWS V13.01,2013-03-15 22:14:00,
2013-03-15 18:19:00,63.1,44.2,30.15,West,277,0.0,2.0,50,0.00,,---,0.00,VWS V13.01,2013-03-15 22:19:00,
2013-03-15 18:24:00,63.0,44.1,30.15,WNW,290,0.0,3.0,50,0.00,,---,0.00,VWS V13.01,2013-03-15 22:24:00,
2013-03-15 18:29:00,62.7,44.8,30.15,NNW,329,0.0,3.0,52,0.00,,---,0.00,VWS V13.01,2013-03-15 22:29:00,
2013-03-15 18:34:00,62.7,44.8,30.15,NW,321,0.0,6.0,52,0.00,,---,0.00,VWS V13.01,2013-03-15 22:34:00,
2013-03-15 18:39:00,62.5,44.7,30.15,West,271,0.0,6.0,52,0.00,,---,0.00,VWS V13.01,2013-03-15 22:39:00,
2013-03-15 18:44:00,62.3,45.0,30.15,North,350,2.0,6.0,53,0.00,,---,0.00,VWS V13.01,2013-03-15 22:44:00,
2013-03-15 18:49:00,62.3,45.0,30.14,WNW,283,0.0,6.0,53,0.00,,---,0.00,VWS V13.01,2013-03-15 22:49:00,
2013-03-15 18:55:00,62.3,45.0,30.15,WNW,284,0.0,6.0,53,0.00,,---,0.00,VWS V13.01,2013-03-15 22:55:00,
2013-03-15 19:00:00,62.1,45.3,30.15,NW,313,0.0,0.0,54,0.00,,---,0.00,VWS V13.01,2013-03-15 23:00:00,
2013-03-15 19:05:00,62.0,44.7,30.15,WNW,292,0.0,2.0,53,0.00,,---,0.00,VWS V13.01,2013-03-15 23:05:00,
2013-03-15 19:10:00,61.9,45.1,30.15,NNW,343,0.0,2.0,54,0.00,,---,0.00,VWS V13.01,2013-03-15 23:10:00,
2013-03-15 19:15:00,61.6,44.3,30.15,West,273,0.0,2.0,53,0.00,,---,0.00,VWS V13.01,2013-03-15 23:15:00,
2013-03-15 19:20:00,61.5,45.2,30.15,West,274,0.0,2.0,55,0.00,,---,0.00,VWS V13.01,2013-03-15 23:20:00,
2013-03-15 19:25:00,61.3,46.0,30.15,West,274,0.0,2.0,57,0.00,,---,0.00,VWS V13.01,2013-03-15 23:25:00,
2013-03-15 19:30:00,61.1,45.8,30.15,WNW,284,0.0,0.0,57,0.00,,---,0.00,VWS V13.01,2013-03-15 23:30:00,
2013-03-15 19:35:00,60.9,46.5,30.15,NNW,343,0.0,0.0,59,0.00,,---,0.00,VWS V13.01,2013-03-15 23:35:00,
2013-03-15 19:40:00,60.7,46.8,30.15,NNW,338,0.0,0.0,60,0.00,,---,0.00,VWS V13.01,2013-03-15 23:40:00,
2013-03-15 19:45:00,60.4,46.9,30.15,NW,320,0.0,0.0,61,0.00,,---,0.00,VWS V13.01,2013-03-15 23:45:00,
2013-03-15 19:50:00,60.3,46.8,30.15,NW,319,0.0,0.0,61,0.00,,---,0.00,VWS V13.01,2013-03-15 23:50:00,
2013-03-15 19:55:00,60.2,47.2,30.15,NW,319,0.0,0.0,62,0.00,,---,0.00,VWS V13.01,2013-03-15 23:55:00,
2013-03-15 20:00:00,59.9,47.3,30.15,NW,319,0.0,0.0,63,0.00,,---,0.00,VWS V13.01,2013-03-16 00:00:00,
2013-03-15 20:06:00,59.5,46.9,30.15,NW,319,0.0,0.0,63,0.00,,---,0.00,VWS V13.01,2013-03-16 00:06:00,
2013-03-15 20:11:00,59.3,47.1,30.15,NW,319,0.0,0.0,64,0.00,,---,0.00,VWS V13.01,2013-03-16 00:11:00,
2013-03-15 20:16:00,59.0,46.8,30.15,NW,319,0.0,0.0,64,0.00,,---,0.00,VWS V13.01,2013-03-16 00:16:00,
2013-03-15 20:21:00,58.6,47.3,30.15,NW,319,0.0,0.0,66,0.00,,---,0.00,VWS V13.01,2013-03-16 00:21:00,
2013-03-15 20:26:00,58.2,46.9,30.15,NW,319,0.0,0.0,66,0.00,,---,0.00,VWS V13.01,2013-03-16 00:26:00,
2013-03-15 20:32:00,57.8,47.3,30.15,NW,319,0.0,0.0,68,0.00,,---,0.00,VWS V13.01,2013-03-16 00:32:00,
2013-03-15 20:37:00,57.6,47.5,30.15,NW,319,0.0,0.0,69,0.00,,---,0.00,VWS V13.01,2013-03-16 00:37:00,
2013-03-15 20:42:00,57.3,47.2,30.15,NW,319,0.0,0.0,69,0.00,,---,0.00,VWS V13.01,2013-03-16 00:42:00,
2013-03-15 20:47:00,57.1,47.0,30.15,NW,319,0.0,0.0,69,0.00,,---,0.00,VWS V13.01,2013-03-16 00:47:00,
2013-03-15 20:52:00,57.0,46.9,30.15,NW,319,0.0,0.0,69,0.00,,---,0.00,VWS V13.01,2013-03-16 00:52:00,
2013-03-15 20:57:00,56.7,46.7,30.15,NW,319,0.0,0.0,69,0.00,,---,0.00,VWS V13.01,2013-03-16 00:57:00,
2013-03-15 21:02:00,56.3,46.7,30.15,NW,319,0.0,0.0,70,0.00,,---,0.00,VWS V13.01,2013-03-16 01:02:00,
2013-03-15 21:07:00,56.1,46.5,30.15,NW,319,0.0,0.0,70,0.00,,---,0.00,VWS V13.01,2013-03-16 01:07:00,
2013-03-15 21:13:00,55.8,46.5,30.15,NW,319,0.0,0.0,71,0.00,,---,0.00,VWS V13.01,2013-03-16 01:13:00,
2013-03-15 21:18:00,55.5,46.6,30.15,NW,319,0.0,0.0,72,0.00,,---,0.00,VWS V13.01,2013-03-16 01:18:00,
2013-03-15 21:23:00,55.2,46.3,30.15,NW,319,0.0,0.0,72,0.00,,---,0.00,VWS V13.01,2013-03-16 01:23:00,
2013-03-15 21:28:00,55.0,46.5,30.16,NW,319,0.0,0.0,73,0.00,,---,0.00,VWS V13.01,2013-03-16 01:28:00,
2013-03-15 21:33:00,54.8,46.3,30.16,NW,319,0.0,0.0,73,0.00,,---,0.00,VWS V13.01,2013-03-16 01:33:00,
2013-03-15 21:38:00,54.4,45.9,30.16,NW,319,0.0,0.0,73,0.00,,---,0.00,VWS V13.01,2013-03-16 01:38:00,
2013-03-15 21:43:00,54.2,45.8,30.16,NW,319,0.0,0.0,73,0.00,,---,0.00,VWS V13.01,2013-03-16 01:43:00,
2013-03-15 21:48:00,53.9,46.2,30.16,NW,319,0.0,0.0,75,0.00,,---,0.00,VWS V13.01,2013-03-16 01:48:00,
2013-03-15 21:53:00,53.8,46.8,30.16,NW,319,0.0,0.0,77,0.00,,---,0.00,VWS V13.01,2013-03-16 01:53:00,
2013-03-15 21:58:00,53.5,46.1,30.16,NW,319,0.0,0.0,76,0.00,,---,0.00,VWS V13.01,2013-03-16 01:58:00,
2013-03-15 22:03:00,53.3,45.9,30.16,NW,319,0.0,0.0,76,0.00,,---,0.00,VWS V13.01,2013-03-16 02:03:00,
2013-03-15 22:09:00,53.0,46.0,30.17,NW,319,0.0,0.0,77,0.00,,---,0.00,VWS V13.01,2013-03-16 02:09:00,
2013-03-15 22:14:00,52.9,46.2,30.16,NW,319,0.0,0.0,78,0.00,,---,0.00,VWS V13.01,2013-03-16 02:14:00,
2013-03-15 22:19:00,52.8,46.5,30.16,NW,319,0.0,0.0,79,0.00,,---,0.00,VWS V13.01,2013-03-16 02:19:00,
2013-03-15 22:24:00,52.6,46.3,30.17,NW,319,0.0,0.0,79,0.00,,---,0.00,VWS V13.01,2013-03-16 02:24:00,
2013-03-15 22:29:00,52.6,46.3,30.17,NW,319,0.0,0.0,79,0.00,,---,0.00,VWS V13.01,2013-03-16 02:29:00,
2013-03-15 22:34:00,52.6,46.6,30.16,NW,319,0.0,0.0,80,0.00,,---,0.00,VWS V13.01,2013-03-16 02:34:00,
2013-03-15 22:39:00,52.5,46.8,30.17,NW,319,0.0,0.0,81,0.00,,---,0.00,VWS V13.01,2013-03-16 02:39:00,
2013-03-15 22:44:00,52.4,46.8,30.17,NW,319,0.0,0.0,81,0.00,,---,0.00,VWS V13.01,2013-03-16 02:44:00,
2013-03-15 22:49:00,52.3,47.0,30.17,NW,319,0.0,0.0,82,0.00,,---,0.00,VWS V13.01,2013-03-16 02:49:00,
2013-03-15 22:54:00,52.1,46.5,30.17,NW,319,0.0,0.0,81,0.00,,---,0.00,VWS V13.01,2013-03-16 02:54:00,
2013-03-15 22:59:00,51.9,46.6,30.17,NW,319,0.0,0.0,82,0.00,,---,0.00,VWS V13.01,2013-03-16 02:59:00,
2013-03-15 23:04:00,51.8,46.5,30.17,NW,319,0.0,0.0,82,0.00,,---,0.00,VWS V13.01,2013-03-16 03:04:00,
2013-03-15 23:09:00,51.5,46.5,30.17,NW,319,0.0,0.0,83,0.00,,---,0.00,VWS V13.01,2013-03-16 03:09:00,
2013-03-15 23:15:00,51.3,46.0,30.17,NW,319,0.0,0.0,82,0.00,,---,0.00,VWS V13.01,2013-03-16 03:15:00,
2013-03-15 23:20:00,51.2,45.9,30.17,NW,319,0.0,0.0,82,0.00,,---,0.00,VWS V13.01,2013-03-16 03:20:00,
2013-03-15 23:25:00,51.0,46.0,30.17,NW,319,0.0,0.0,83,0.00,,---,0.00,VWS V13.01,2013-03-16 03:25:00,
2013-03-15 23:30:00,51.0,46.0,30.17,NW,319,0.0,0.0,83,0.00,,---,0.00,VWS V13.01,2013-03-16 03:30:00,
2013-03-15 23:35:00,50.9,46.2,30.17,NW,319,0.0,0.0,84,0.00,,---,0.00,VWS V13.01,2013-03-16 03:35:00,
2013-03-15 23:40:00,50.8,46.2,30.17,NW,319,0.0,0.0,84,0.00,,---,0.00,VWS V13.01,2013-03-16 03:40:00,
2013-03-15 23:45:00,50.7,45.7,30.17,NW,319,0.0,0.0,83,0.00,,---,0.00,VWS V13.01,2013-03-16 03:45:00,
2013-03-15 23:50:00,50.6,45.6,30.17,NW,319,0.0,0.0,83,0.00,,---,0.00,VWS V13.01,2013-03-16 03:50:00,
2013-03-15 23:55:00,50.5,45.8,30.17,NW,319,0.0,0.0,84,0.00,,---,0.00,VWS V13.01,2013-03-16 03:55:00,